Regional Weather Roundup
Issued by NWS

Home | Current Version | Previous Version | Text Only | Print | Product List | Glossary On
Versions: 1 2 3 4 5 6 7 8 9 10 11 12 13 14 15 16 17 18 19 20 21 22 23 24 25 26 27 28 29 30 31 32 33 34 35 36 37 38 39 40 41 42 43 44 45 46 47 48 49 50
000
ASUS45 KREV 201310
RWRNV
NEVADA REGIONAL WEATHER ROUNDUP
NATIONAL WEATHER SERVICE RENO NV
600 AM PDT SAT SEP 20 2014

NOTE: "FAIR" INDICATES FEW OR NO CLOUDS BELOW 12,000 FEET WITH NO
SIGNIFICANT WEATHER AND/OR OBSTRUCTIONS TO VISIBILITY.

NVZ001-003-004-201400-
WESTERN NEVADA

CITY           SKY/WX    TMP DP  RH WIND       PRES   REMARKS
RENO           PTCLDY    58  40  51 NW5       30.09R
CARSON CITY    FAIR      50  37  62 CALM      30.10S
MINDEN         FAIR      45  36  70 CALM      30.12R
PYRAMID LAKE     N/A     72 N/A N/A SW1         N/A
FALLON         CLEAR     51  36  56 S6        30.05R
LOVELOCK       CLEAR     63  39  41 VRB3      30.06R
HAWTHORNE      CLEAR     61  37  41 CALM      30.07R
$$

NVZ002-CAZ072-073-201400-
NORTHERN AND CENTRAL SIERRA

CITY           SKY/WX    TMP DP  RH WIND       PRES   REMARKS
S. LAKE TAHOE  CLEAR     42  33  70 S3        30.17S
TRUCKEE        CLEAR     36  32  87 CALM      30.17S
SQUAW VLY 8000 NOT AVBL
BLUE CANYON    CLEAR     67  35  30 VRB7      30.09F
MAMMOTH LAKES  FAIR      39  30  70 CALM      30.23R
BRIDGEPORT     FAIR      39  28  64 CALM      30.20R
$$

NVZ030-031-036-201400-
NORTHERN NEVADA

CITY           SKY/WX    TMP DP  RH WIND       PRES   REMARKS
ELKO           CLEAR     49  38  65 CALM      30.18R
WINNEMUCCA     CLEAR     59  41  51 E8        30.11R
WENDOVER       PTCLDY    61  45  55 CALM      30.15R
$$

NVZ035-037-201400-
CENTRAL NEVADA

CITY           SKY/WX    TMP DP  RH WIND       PRES   REMARKS
ELY            CLEAR     45  35  68 S8        30.25R
EUREKA           N/A     45  35  68 S6        30.21R
$$

NVZ013-014-201400-
SOUTH CENTRAL NEVADA

CITY           SKY/WX    TMP DP  RH WIND       PRES   REMARKS
TONOPAH        PTCLDY    56  30  37 N12       30.14R
$$

NVZ017-020-022-201400-
SOUTHERN NEVADA

CITY           SKY/WX    TMP DP  RH WIND       PRES   REMARKS
LAS VEGAS      MOCLDY    78  40  25 S10       29.88R
N. LAS VEGAS   MOCLDY    77  41  27 N5        29.90S
NELLIS AFB     PTCLDY    73  41  31 E7        29.89S
HENDERSON      PTCLDY    74  43  32 S6        29.94R
MERCURY        MOCLDY    67  40  37 CALM      29.98R
$$


USA.gov is the U.S. government's official web portal to all federal, state and local government web resources and services.